Temperature
16 16 16 15 15 15 15 15 15 15 15 15 15 15 15 15 15 15 15 15 15 15 15 15 15 15 15 15 15 15 15 15 15 15 15 15 15 15 15 15 15 15 15
16 16 15 15 15 15 15 15 15 15 15 15 15 15 15 15 15 15 15 15 15 15 15 15 15 15 15 15 15 15 15 15 15 15 15 15 15 15 15 15 15 15 15
16 15 15 15 15 15 15 15 15 15 15 15 15 15 15 15 14 15 15 15 15 15 15 15 15 15 15 15 15 15 14 14 15 15 15 15 15 15 15 15 15 15 15
15 15 15 15 15 15 15 15 15 15 15 14 14 14 14 14 14 14 14 14 14 14 14 14 14 14 14 14 14 14 14 14 14 14 14 14 14 14 14 14 14 14 14
15 15 15 15 15 15 15 14 14 14 14 14 14 14 14 14 14 14 14 14 14 14 14 14 14 14 14 14 14 14 14 14 14 14 14 14 14 14 14 14 14 14 14
15 15 15 14 14 14 14 14 14 14 14 14 14 14 14 14 14 14 14 14 13 13 13 13 13 14 14 14 14 13 13 13 13 13 13 13 13 13 13 13 14 13 14
15 15 14 14 14 14 14 14 14 14 14 14 14 14 14 14 14 14 14 13 13 13 13 13 13 13 13 13 13 13 13 13 13 13 13 13 13 13 13 13 13 13 13
14 14 14 14 14 14 14 14 14 14 14 14 14 14 14 14 14 14 14 13 13 13 13 13 13 13 13 13 13 13 13 13 13 13 13 13 13 13 13 13 13 13 13
14 14 14 14 14 14 14 14 14 14 14 13 14 14 14 13 13 13 13 13 13 13 13 13 13 12 12 13 13 13 13 13 12 12 12 12 12 12 12 12 12 13 12
14 14 14 14 14 13 13 13 13 13 13 13 13 14 14 14 13 13 13 13 13 13 13 13 12 12 12 12 12 12 13 12 12 12 12 12 12 12 12 12 12 12 12
14 14 14 14 13 13 13 13 13 13 13 13 13 13 13 14 14 13 13 13 13 13 13 12 12 12 12 12 12 12 12 12 12 12 12 12 12 12 12 11 12 12 12
14 14 14 13 13 13 13 13 13 13 13 13 13 13 13 13 13 13 13 13 13 13 12 12 12 12 12 12 12 12 12 12 12 12 12 12 12 12 11 11 11 11 11
14 14 14 13 13 13 13 13 13 13 13 13 13 13 13 13 13 13 13 13 13 12 12 12 12 12 12 12 12 12 12 12 12 12 12 12 12 12 12 11 11 11 11
14 14 14 13 13 13 13 13 13 13 13 13 13 13 13 13 13 13 13 13 12 12 12 12 12 12 12 12 12 12 12 12 12 12 12 12 12 12 12 12 11 11 11
14 14 14 13 13 13 13 13 13 12 12 12 13 13 13 12 13 12 12 12 12 12 12 12 12 12 12 12 11 12 12 11 11 11 11 11 12 12 11 12 12 11 11
14 14 14 13 13 13 13 13 13 12 12 12 12 12 12 12 12 12 12 12 12 12 12 12 12 12 12 12 11 11 11 11 11 11 11 11 11 11 11 11 11 11 11
13 13 13 13 13 13 13 13 13 12 12 12 12 12 12 12 12 12 12 12 12 12 12 12 11 11 11 11 11 11 11 11 11 11 11 11 11 11 11 11 11 11 11
13 13 13 13 13 13 13 13 12 12 12 12 12 12 12 12 12 12 12 12 12 12 11 11 11 11 11 11 11 11 11 11 11 11 11 11 11 11 11 11 11 11 11
13 13 13 13 13 13 12 12 12 12 12 12 12 12 12 12 12 12 11 11 11 11 11 11 11 11 11 11 11 11 10 10 10 10 10 10 10 10 10 10 10 10 10
13 13 13 13 12 12 12 12 12 12 12 12 12 12 11 11 11 11 11 11 11 11 11 11 11 11 11 10 10 10 10 10 10 10 10 10 10 10 10 10 10 10 10
12 12 12 12 12 12 12 12 12 12 11 11 11 11 11 11 11 11 11 11 11 11 11 11 11 10 10 10 10 10 10 10 10 10 10 10 10 10 10 10 10 10 10
12 12 12 12 12 12 12 11 11 11 11 11 11 11 11 11 11 11 11 11 11 11 11 11 10 10 10 10 10 10 10 10 9 9 9 9 9 9 9 9 9 9 9
11 12 12 11 11 11 11 11 11 11 11 11 11 10 10 10 10 10 11 11 10 10 10 10 10 10 10 10 10 10 10 9 9 9 9 9 9 9 9 9 9 9 9
11 11 11 11 11 11 11 11 11 10 10 10 10 10 10 10 10 10 10 10 10 10 10 10 10 10 10 10 10 10 9 9 9 9 9 9 8 8 8 8 8 8 8
10 11 11 11 10 10 10 10 10 10 10 10 10 10 10 10 10 10 10 10 10 10 10 9 9 9 9 9 9 9 9 9 9 9 8 8 8 8 8 8 8 8 8
10 10 10 10 10 10 10 10 10 10 10 9 9 9 9 9 9 9 9 9 9 9 9 9 9 9 9 9 9 9 9 9 8 8 8 8 8 8 7 7 7 7 7
Wind_Speed
3 3 3 4 5 5 4 3 4 4 5 6 7 8 7 8 9 10 10 11 11 11 11 10 11 11 10 10 11 11 11 10 10 9 9 9 9 8 7 6 6 6 5
3 3 4 4 4 4 4 4 4 4 4 4 6 6 7 7 8 9 10 10 12 11 11 10 11 10 10 10 10 10 10 10 10 10 10 9 9 8 7 6 6 6 6
5 4 4 3 3 5 6 5 5 4 4 4 4 5 5 6 6 8 9 9 9 11 11 11 11 11 11 10 10 9 9 9 10 10 10 9 8 7 7 7 6 6 6
6 5 3 3 4 5 3 3 4 4 4 4 3 3 4 4 5 6 7 8 8 9 10 12 11 11 11 11 10 10 9 9 9 9 9 9 8 7 7 7 6 6 6
7 5 3 2 5 3 3 3 4 4 3 3 2 3 3 3 3 5 5 7 9 9 8 10 11 11 12 11 11 10 10 10 10 9 10 9 8 7 7 7 6 6 6
6 5 3 4 4 3 3 4 4 3 2 1 2 3 3 2 3 4 4 5 7 7 7 8 8 9 10 11 10 10 9 9 9 9 9 9 9 8 7 7 6 6 6
4 4 2 3 3 2 2 3 2 2 2 1 2 1 1 2 3 2 3 3 4 5 5 7 7 7 8 9 10 9 9 9 9 8 8 8 7 7 7 7 7 6 6
3 3 2 3 3 2 3 3 2 1 2 2 1 1 1 1 1 2 2 2 2 3 4 6 7 7 7 8 8 8 8 7 7 7 7 7 7 6 6 6 7 6 6
3 3 2 2 2 2 2 1 1 2 1 2 2 1 1 0 1 1 1 2 2 2 2 3 5 7 8 7 7 6 6 6 5 5 5 5 5 6 5 6 5 5 5
2 2 2 2 1 2 2 0 1 0 1 1 1 2 1 2 1 0 1 1 2 2 2 2 4 5 7 8 7 7 6 5 5 4 4 4 4 5 5 5 5 4 4
2 2 2 1 1 2 1 1 1 1 0 0 0 1 1 1 0 1 1 0 0 1 2 2 3 4 6 7 7 6 6 5 4 4 4 4 4 4 4 4 4 4 4
1 1 2 1 1 1 1 1 1 0 0 0 0 0 0 0 0 1 1 1 1 1 1 1 2 3 5 7 6 6 5 5 4 4 3 3 3 3 3 3 3 3 3
1 1 1 1 1 1 1 1 0 1 1 0 1 0 0 1 0 0 0 1 0 0 1 1 2 4 4 6 6 6 5 4 4 4 4 3 3 2 2 2 2 2 2
2 2 2 2 2 2 1 1 0 1 1 1 0 0 0 1 0 0 1 1 0 1 0 1 1 3 4 7 7 6 6 5 4 3 2 2 2 2 2 2 2 2 1
3 3 2 2 2 2 2 2 1 1 0 1 1 1 1 1 1 0 1 1 2 1 1 1 1 2 4 6 7 6 7 6 5 3 2 1 1 1 1 1 1 2 1
2 2 2 2 2 2 2 1 1 0 1 1 1 1 1 1 1 0 0 1 1 2 2 1 1 2 3 4 5 5 7 8 6 5 3 2 1 0 0 1 1 1 2
3 3 3 2 2 2 2 1 1 1 1 1 1 2 2 1 1 1 1 1 1 1 2 1 1 1 2 3 3 4 5 7 7 6 5 4 3 2 2 2 1 2 2
2 3 2 2 2 2 2 2 2 1 1 2 2 2 2 2 2 1 1 2 2 2 3 2 1 1 2 3 3 3 4 4 5 7 7 5 4 3 3 3 2 2 2
1 2 1 2 2 2 2 2 2 2 2 2 2 2 2 2 2 1 1 2 2 2 2 2 2 1 1 2 2 2 2 2 3 4 6 6 5 4 4 4 3 2 2
1 1 2 1 1 2 2 2 2 2 2 2 2 1 2 2 2 2 2 2 2 2 2 2 2 1 1 2 2 2 2 1 1 2 3 4 5 5 4 4 4 3 3
1 1 1 1 1 1 1 1 2 2 2 1 1 2 2 2 3 3 2 2 2 1 2 2 2 1 1 1 2 2 3 2 2 1 1 2 3 3 4 5 5 5 4
1 1 1 1 1 1 1 0 1 1 2 2 2 2 2 2 2 3 3 3 4 4 3 3 2 3 3 3 2 2 2 2 2 1 2 2 2 2 3 5 5 5 5
0 1 0 1 1 1 1 1 1 1 2 2 2 2 2 1 1 2 2 3 3 4 5 4 3 4 4 4 3 2 2 3 2 2 2 2 1 2 3 4 5 6 6
0 1 1 1 1 2 2 2 2 2 1 2 2 2 2 2 2 2 2 2 2 2 3 3 3 3 2 2 3 3 4 2 1 1 2 2 1 2 2 4 6 5 5
1 1 1 1 1 2 2 2 2 1 1 2 2 2 1 1 1 2 2 2 2 2 2 3 3 2 2 1 2 2 1 2 2 2 1 2 1 1 1 1 3 5 4
2 2 1 1 2 2 2 2 2 1 1 2 2 2 2 1 1 1 2 2 2 3 2 1 1 2 2 2 3 3 4 3 2 2 2 2 1 0 1 1 1 3 2
Wind_Direction
66 79 82 65 62 56 58 55 56 45 41 41 55 64 75 86 91 91 84 83 88 88 84 83 86 90 88 85 85 80 78 79 79 81 82 88 90 90 86 87 85 77 75
65 66 69 63 56 53 55 59 58 53 54 50 49 58 67 78 88 97 96 87 84 85 83 85 85 85 83 85 86 84 81 80 78 79 79 81 83 83 86 88 92 87 78
72 76 61 62 60 52 54 56 50 54 60 59 56 56 61 67 84 92 98 97 91 87 86 85 84 81 79 79 81 82 82 82 80 78 76 74 76 79 79 83 85 85 81
72 76 68 57 62 58 58 59 49 43 47 49 50 51 58 61 69 85 94 95 93 90 89 88 84 81 77 75 75 77 79 79 77 73 72 69 70 75 78 80 81 83 84
78 81 76 69 66 54 40 53 57 52 50 50 62 67 62 58 58 73 79 87 95 97 98 98 91 84 78 73 69 70 73 73 72 70 66 61 62 69 75 80 80 81 84
73 82 91 78 73 60 41 50 60 54 47 34 62 80 87 89 68 56 70 82 93 100 106 106 105 93 83 75 68 67 71 73 73 72 68 61 60 65 70 73 79 84 87
69 77 84 84 79 72 68 59 63 58 38 48 66 58 77 94 101 88 73 77 85 95 109 114 108 100 93 80 71 68 67 69 70 70 68 64 61 68 71 72 75 80 85
70 75 79 86 92 81 64 56 52 47 14 22 64 84 64 41 29 109 105 99 93 83 82 95 107 106 101 95 80 72 67 69 69 67 65 64 60 65 71 74 73 74 78
79 73 75 91 106 104 104 100 69 63 4 344 29 77 101 105 340 47 124 112 106 95 80 82 96 107 109 106 98 82 75 69 74 74 69 64 61 63 69 77 74 70 71
100 96 81 89 105 98 112 137 91 38 93 337 340 9 70 128 127 354 339 100 123 121 121 90 83 94 103 108 108 94 78 67 68 73 77 74 69 65 68 75 75 71 74
144 123 107 97 98 102 117 92 71 31 82 141 221 342 6 15 159 148 227 269 39 149 131 125 115 105 110 115 117 107 90 75 72 73 71 69 67 60 60 63 65 65 68
146 122 107 105 109 104 108 109 104 109 15 2 295 139 129 48 269 126 195 213 219 208 142 131 133 124 125 123 124 122 110 94 86 82 76 74 68 58 52 48 54 58 54
156 162 131 158 141 152 139 128 143 204 213 250 267 248 219 262 214 71 143 233 202 225 143 157 152 139 138 129 134 138 134 123 109 94 80 75 71 52 37 35 37 44 43
179 169 171 176 164 162 133 134 175 237 216 214 269 328 309 304 130 165 180 153 344 300 191 212 166 150 145 143 152 156 156 149 138 121 101 87 79 54 37 32 17 10 15
165 159 171 155 146 143 150 153 180 231 205 220 209 234 257 269 269 212 187 181 170 208 250 215 182 175 140 141 162 171 160 162 160 158 145 130 102 61 53 29 7 355 337
152 162 168 154 153 161 150 141 172 218 192 220 202 220 236 247 237 192 226 268 187 182 220 216 198 181 157 158 174 177 169 171 177 181 182 184 189 198 237 252 287 314 312
164 170 173 169 172 158 160 165 192 194 216 246 232 218 229 225 203 209 201 222 245 178 196 237 181 161 158 166 167 171 169 172 182 188 189 194 203 213 227 238 267 294 288
165 167 178 171 170 159 164 170 205 209 225 246 240 222 227 217 214 210 192 209 221 212 184 198 193 184 188 181 176 184 172 175 177 189 194 199 206 212 216 222 235 258 269
166 163 172 173 179 174 173 188 195 214 217 228 230 229 232 211 212 209 202 217 222 221 181 173 198 203 205 185 172 191 182 170 187 191 197 205 207 209 210 211 219 229 239
183 178 178 189 203 187 171 196 201 220 232 228 225 238 242 219 210 204 211 216 213 209 185 173 188 211 216 208 167 184 200 217 215 195 195 200 206 211 212 210 215 220 218
221 217 180 188 228 216 194 189 213 217 227 244 244 241 235 214 207 204 209 205 195 207 199 177 188 206 227 212 201 196 191 208 226 196 183 189 184 199 213 219 222 222 218
199 207 206 202 226 262 313 303 267 237 239 234 240 241 238 222 198 203 208 204 202 206 202 192 206 207 221 219 208 198 187 191 245 228 171 220 170 194 204 192 195 200 209
203 173 241 214 215 224 208 206 262 266 265 261 248 248 261 231 181 183 203 213 218 221 212 201 208 221 217 212 190 198 196 185 215 220 161 231 214 218 204 193 187 197 203
261 224 238 254 252 255 226 227 242 260 262 280 276 258 250 242 193 194 195 184 214 224 222 216 212 230 233 200 185 193 197 200 211 228 139 206 242 234 210 183 194 196 200
274 257 237 242 251 252 229 224 210 229 229 261 278 284 259 259 206 209 189 206 223 231 219 200 193 201 216 192 163 138 154 169 229 240 196 172 228 241 226 193 185 193 204
249 257 261 254 251 247 234 216 201 217 227 259 270 273 263 251 260 222 201 208 240 244 220 220 231 247 222 206 203 186 184 183 192 227 225 167 208 161 289 264 157 169 192
Height
1530 1530 1530 1530 1530 1530 1530 1530 1530 1530 1530 1530 1530 1530 1530 1530 1530 1531 1531 1532 1533 1533 1534 1534 1534 1535 1535 1536 1536 1536 1536 1537 1537 1538 1538 1538 1539 1540 1540 1540 1541 1541 1542
1531 1531 1531 1531 1531 1531 1531 1531 1531 1531 1531 1531 1531 1531 1531 1531 1532 1532 1532 1533 1533 1534 1534 1535 1535 1535 1536 1536 1536 1537 1537 1537 1538 1538 1538 1539 1539 1539 1540 1540 1541 1541 1542
1532 1532 1532 1533 1533 1533 1532 1532 1532 1532 1532 1532 1532 1532 1532 1533 1533 1533 1533 1534 1534 1534 1535 1535 1536 1536 1536 1537 1537 1537 1538 1538 1538 1538 1539 1539 1539 1540 1540 1540 1541 1541 1541
1532 1532 1533 1533 1533 1533 1533 1533 1533 1533 1533 1533 1533 1533 1533 1534 1534 1534 1534 1534 1534 1535 1535 1535 1536 1536 1537 1537 1537 1538 1538 1538 1538 1539 1539 1539 1539 1540 1540 1540 1540 1541 1541
1532 1532 1533 1534 1534 1534 1534 1534 1534 1534 1534 1534 1534 1534 1534 1535 1535 1535 1535 1535 1535 1535 1536 1536 1536 1537 1537 1537 1538 1538 1538 1539 1539 1539 1539 1539 1539 1539 1539 1540 1540 1541 1541
1532 1533 1533 1534 1534 1534 1534 1534 1534 1534 1534 1535 1535 1535 1535 1536 1536 1536 1536 1536 1536 1536 1536 1536 1537 1537 1537 1538 1538 1538 1539 1539 1539 1539 1539 1539 1539 1539 1539 1540 1540 1540 1540
1532 1533 1533 1533 1534 1534 1534 1534 1535 1535 1535 1535 1535 1535 1536 1536 1536 1537 1537 1537 1537 1537 1537 1537 1537 1537 1538 1538 1538 1538 1538 1538 1538 1538 1538 1539 1539 1539 1539 1539 1539 1540 1540
1532 1533 1533 1533 1534 1534 1534 1534 1535 1535 1535 1535 1535 1535 1536 1538 1537 1537 1537 1537 1537 1537 1538 1538 1537 1537 1538 1538 1538 1538 1538 1538 1538 1538 1538 1538 1538 1538 1538 1538 1539 1539 1539
1532 1532 1533 1533 1533 1534 1534 1534 1535 1535 1535 1535 1536 1536 1536 1536 1537 1538 1537 1537 1538 1538 1538 1538 1537 1537 1537 1538 1538 1537 1537 1538 1537 1537 1537 1537 1537 1538 1538 1538 1538 1538 1539
1531 1532 1532 1532 1533 1533 1533 1534 1534 1534 1535 1535 1535 1536 1536 1536 1536 1537 1538 1537 1537 1537 1537 1538 1537 1537 1537 1537 1537 1537 1537 1537 1537 1536 1536 1537 1537 1537 1537 1537 1537 1538 1538
1530 1531 1531 1532 1532 1532 1532 1533 1533 1533 1534 1534 1534 1534 1535 1535 1536 1536 1536 1537 1537 1537 1537 1537 1537 1537 1536 1536 1536 1536 1536 1536 1536 1536 1536 1536 1536 1537 1537 1537 1537 1537 1537
1529 1530 1530 1531 1531 1531 1531 1531 1532 1532 1532 1533 1533 1534 1534 1534 1535 1535 1535 1535 1536 1536 1536 1536 1536 1536 1536 1536 1536 1536 1536 1536 1535 1535 1535 1536 1536 1536 1536 1536 1536 1536 1537
1527 1528 1529 1529 1529 1529 1530 1530 1530 1531 1531 1531 1532 1532 1533 1533 1533 1534 1534 1534 1534 1535 1535 1535 1535 1535 1535 1535 1535 1535 1535 1535 1535 1535 1535 1535 1535 1535 1535 1535 1535 1535 1536
1526 1527 1527 1527 1528 1528 1528 1528 1528 1529 1529 1529 1530 1530 1531 1531 1531 1532 1533 1533 1533 1533 1533 1534 1534 1534 1534 1534 1534 1534 1534 1534 1534 1534 1534 1534 1533 1533 1533 1534 1534 1534 1534
1524 1525 1525 1526 1526 1526 1526 1527 1527 1527 1527 1528 1528 1528 1529 1529 1529 1530 1531 1531 1532 1531 1532 1532 1532 1533 1532 1533 1533 1533 1533 1533 1533 1533 1533 1532 1532 1532 1532 1532 1532 1532 1532
1522 1523 1523 1524 1524 1524 1524 1525 1525 1525 1526 1526 1526 1527 1527 1527 1527 1528 1528 1529 1530 1530 1529 1530 1530 1531 1531 1531 1532 1532 1532 1532 1532 1532 1531 1531 1531 1530 1530 1530 1530 1531 1531
1519 1520 1521 1521 1522 1522 1522 1522 1523 1523 1523 1524 1524 1525 1525 1525 1525 1526 1526 1527 1527 1528 1527 1528 1528 1529 1529 1529 1530 1530 1530 1530 1530 1530 1530 1529 1529 1529 1529 1529 1529 1529 1529
1517 1518 1519 1519 1519 1520 1520 1520 1520 1521 1521 1521 1522 1522 1522 1523 1523 1523 1524 1524 1525 1525 1525 1525 1526 1527 1527 1527 1527 1528 1528 1528 1528 1528 1528 1528 1527 1527 1527 1527 1527 1527 1527
1515 1515 1516 1517 1517 1517 1517 1518 1518 1518 1519 1519 1519 1519 1520 1520 1520 1521 1521 1521 1522 1522 1523 1523 1523 1524 1525 1525 1525 1525 1526 1526 1526 1526 1526 1526 1525 1525 1525 1525 1525 1524 1524
1512 1513 1513 1514 1514 1514 1514 1515 1515 1515 1516 1516 1516 1516 1517 1517 1517 1517 1518 1518 1519 1519 1520 1520 1520 1521 1522 1522 1523 1523 1523 1523 1524 1524 1524 1523 1523 1523 1522 1522 1522 1522 1522
1509 1510 1510 1510 1511 1511 1512 1512 1512 1512 1513 1513 1513 1513 1513 1514 1514 1514 1514 1515 1516 1516 1516 1517 1517 1518 1519 1520 1520 1520 1520 1521 1521 1521 1521 1521 1520 1520 1520 1520 1520 1520 1520
1506 1506 1507 1507 1508 1508 1509 1509 1509 1509 1509 1510 1510 1510 1510 1511 1511 1511 1511 1512 1512 1513 1513 1513 1514 1515 1516 1517 1517 1517 1517 1518 1518 1519 1518 1518 1518 1517 1517 1517 1517 1517 1517
1503 1503 1504 1504 1504 1505 1505 1505 1506 1506 1506 1506 1506 1507 1507 1508 1507 1508 1508 1508 1509 1509 1510 1511 1511 1511 1512 1513 1514 1514 1514 1514 1515 1515 1516 1515 1515 1515 1515 1515 1515 1515 1514
1499 1500 1500 1501 1501 1501 1502 1502 1502 1502 1503 1503 1503 1504 1504 1504 1504 1505 1505 1505 1505 1506 1507 1507 1508 1508 1509 1510 1510 1511 1511 1511 1512 1512 1513 1513 1512 1512 1512 1512 1512 1512 1512
1496 1496 1497 1497 1497 1497 1498 1498 1498 1498 1498 1499 1500 1500 1500 1501 1501 1501 1501 1501 1501 1502 1503 1503 1504 1505 1505 1506 1507 1507 1507 1508 1508 1508 1510 1510 1509 1510 1510 1509 1510 1510 1509
1492 1493 1493 1493 1494 1494 1494 1494 1495 1494 1494 1495 1495 1496 1497 1497 1498 1498 1498 1498 1498 1498 1499 1499 1500 1500 1501 1502 1502 1503 1504 1504 1504 1505 1506 1506 1506 1507 1507 1507 1507 1507 1507